PROGRESS-MS 15

Last updated on Wed Feb 10 2021 00:02:11 GMT+0000 (Coordinated Universal Time)

1 45937U 20050A 21040.30889317 -.00000449 00000-0 00000+0 0 9998 2 45937 51.6311 255.2367 0003465 356.9446 179.2702 15.48724131 31112
UTC large
Height (km)
Speed (km/s)
/
Latitude / Longitude
Inclination (degrees)
Orbital Period (minutes)
Azimuth
Elevation
Range (km)
Doppler Factor

Next 0 passes for location: London (51.5072 / 0.1276)

Sorry there are no passes over London.